Location: Most
(50.5133°N, 13.6207°E)
Time: 19:20:56
(UTC+02:00)

ISS - Pass Details

Date: 18 May 2019
Orbit: 407 x 410 km, 51.6° (Epoch: 23 May)

Event Time Altitude Azimuth Distance (km) Brightness Sun altitude
Enters shadow 01:18:50 - 271° (W) 2,366 0.0 -20.0°
Exits shadow 01:20:17 - 273° (W) 1,774 -0.6 -19.9°
Reaches altitude 10° 01:21:00 10° 274° (W) 1,475 -1.0 -19.9°
Maximum altitude 01:24:19 70° 359° (N) 440 -3.6 -19.9°
Drops below altitude 10° 01:27:37 10° 84° (E) 1,477 -0.8 -19.8°
Sets 01:29:43 0° 87° (E) 2,339 0.2 -19.8°
